Starlink 32511

operational
NORAD ID: 61727 Int'l Des: 2024-196 Owner: SPXS Country: US Constellation: starlink
LEOCIRCULAR

Starlink 32511について

説明を読み込み中...

リアルタイム位置

3D地球を読み込み中...

次回通過

高度履歴

Altitude vs Time

uPlot chart will show altitude changes over time

軌道要素

1 61727U 24196W 25352.09159870 .00019708 00000-0 67765-3 0 9990
2 61727 53.1591 120.3477 0001049 57.6318 302.4784 15.30109276 64661
Epoch: Dec 18, 2025 • Age: 17 hours

現在のステータス

高度 486.4 km
速度 7.62 km/s
衛星直下点 -32.97°S, 44.26°W
打ち上げ日 Oct 30, 2024
運用期間 1.1 years
タイプ internet

技術仕様

分類 Payload
質量 730.00 kg
乾燥質量 700.00 kg
総質量 730.00 kg
長さ 0.30 m
直径 4.10 m
スパン 29.00 m
形状 Box + pan
製造者 SPXS
バスタイプ Starlink V2M
フェーズステータス In Orbit
所有者/国 SPXS/US

大規模コンステレーション

Loading constellations...